[[{"header":{"parameterUnit":"m.s-1","parameterCategory":1,"la1":30.2991,"la2":30.254,"lo1":-89.0895,"lo2":-89.0444,"dy":0.0017,"dx":0.0017,"nx":28,"ny":28,"refTime":"2024-06-26T21:00:00:Z","depth":0,"parameterNumber":2,"parameterNumberName":"U-component_of_WINDS"},"data":[0,0,0,0,0,0,0,0,0,0,0,0,0,0,0,0,0,0,0,0,0,0,0,0,0,0,0,0,0,0,0,0,0,0,0,0,0,0,0,0,0,0,0,0,0,0,0,0,0,0,0,0,0,0,0,0,0,0,7.0368,7.037,0,7.0552,7.0554,7.0556,7.054,7.0538,7.0535,7.0532,7.0721,7.0729,7.0736,0,0,0,0,0,0,0,0,0,0,0,0,0,7.0002,7.0009,7.0367,7.037,7.0372,7.0551,7.0554,7.0557,7.0541,7.0538,7.0534,7.0531,7.0719,7.0728,7.0737,0,0,0,0,0,0,0,0,0,0,0,0,0,7.0171,7.0011,7.0367,7.0386,7.0389,7.0551,7.0554,7.0557,7.0542,7.0537,7.0533,7.0529,7.0716,7.0727,7.0738,7.0893,0,0,7.0773,7.0778,0,0,0,0,0,0,0,0,7.0161,7.0184,7.0381,7.0385,7.0389,7.0519,7.0495,7.067,7.0543,7.0484,7.0532,7.0527,7.0657,7.0673,7.0717,7.0902,7.091,7.0774,7.0781,7.0786,7.0789,0,0,0,0,0,0,0,7.015,7.0176,7.044,7.0384,7.0389,7.0385,7.0404,7.0528,7.0592,7.0489,7.0488,7.051,7.0659,7.0706,7.0722,7.0913,7.0774,7.0784,7.0791,7.0796,7.1233,7.1237,0,0,0,0,0,0,7.0134,7.0167,7.0434,7.0446,7.0263,7.0395,7.0417,7.0481,7.0591,7.0603,7.0513,7.0509,7.0689,7.0708,7.0728,7.0915,7.0786,7.0797,7.0803,7.1228,7.1234,7.1239,0,0,0,0,0,0,7.0126,7.0158,7.0427,7.0306,7.034,7.0406,7.0479,7.0487,7.0534,7.0609,7.0621,7.055,7.0686,7.0712,7.0852,7.0922,7.0802,7.0812,7.1222,7.123,7.1236,7.1291,0,0,0,0,0,0,7.0115,7.0155,7.0214,7.0308,7.0347,7.0548,7.0483,7.0494,7.0554,7.055,7.0647,7.0658,7.0685,7.0835,7.0863,7.0935,7.0821,7.1216,7.1226,7.1234,7.1284,7.1299,7.1313,0,0,0,0,0,7.0102,7.0223,7.0218,7.025,7.0423,7.0552,7.0574,7.0602,7.056,7.062,7.0668,7.0655,7.091,7.0849,7.0881,7.0958,7.1212,7.1223,7.1233,7.1277,7.1296,7.1313,0,0,0,0,0,0,7.0136,7.0236,7.0231,7.0385,7.046,7.0549,7.0626,7.0622,7.071,7.0703,7.0733,7.0755,7.0896,7.0941,7.0872,7.1113,7.1055,7.1073,7.1078,7.1097,7.1111,7.1096,7.0831,0,0,0,0,0,7.0162,7.0259,7.034,7.0469,7.0506,7.056,7.0617,7.0632,7.0711,7.0743,7.0801,7.0878,7.0975,7.1039,7.1133,7.1291,7.1311,7.1359,7.1374,7.1385,7.1399,7.1485,7.1507,7.1274,7.1274,7.1273,0,0,7.0215,7.0282,7.0341,7.0477,7.0537,7.0636,7.0587,7.0694,7.0768,7.0759,7.0894,7.094,7.1028,7.1177,7.1246,7.1219,7.1469,7.1399,7.1408,7.1416,7.1498,7.152,7.154,7.1281,7.128,7.1279,0,0,7.0363,7.0424,7.0536,7.0597,7.0689,7.0723,7.075,7.0841,7.087,7.1006,7.1002,7.109,7.1257,7.132,7.1374,7.1545,7.1536,7.1575,7.1651,7.1734,7.1752,7.1769,7.1828,7.1849,7.1589,7.159,7.159,0,7.0418,7.0567,7.0595,7.0703,7.0762,7.076,7.0873,7.0932,7.1049,7.109,7.1059,7.1268,7.1327,7.149,7.1532,7.1576,7.1607,7.1563,7.1748,7.1764,7.178,7.1837,7.1859,7.1593,7.1593,7.1593,7.1592,0,7.0629,7.0733,7.0813,7.0926,7.0995,7.1105,7.1149,7.1216,7.1225,7.1263,7.1401,7.1472,7.158,7.162,7.163,7.1785,7.1765,7.1741,7.1683,7.1806,7.1859,7.1882,7.1599,7.1598,7.1597,7.1596,0,0,7.0803,7.0929,7.0958,7.1008,7.1109,7.119,7.13,7.1405,7.146,7.1542,7.1634,7.1776,7.1753,7.1815,7.1832,7.1905,7.2034,7.1872,7.1874,7.1897,7.2206,7.2222,7.2247,7.203,7.2034,7.2037,7.2198,0,7.0959,7.1154,7.1182,7.1354,7.1449,7.1448,7.1544,7.1616,7.1654,7.1741,7.1783,7.1882,7.1846,7.1883,7.1955,7.2003,7.2096,7.1992,7.2115,7.2119,7.209,7.2276,7.2293,7.2442,7.222,7.2223,7.2226,0,7.1167,7.1253,7.1434,7.1521,7.1562,7.1648,7.1745,7.1828,7.191,7.1933,7.2001,7.2009,7.2123,7.2062,7.2219,7.2147,7.2199,7.2231,7.2237,7.2248,7.2178,7.2289,7.249,7.2511,7.226,7.2257,7.2255,0,7.1273,7.1434,7.1563,7.1607,7.1712,7.1772,7.1818,7.1895,7.1956,7.2042,7.2081,7.218,7.2233,7.2309,7.2343,7.2296,7.2497,7.244,7.2518,7.2517,7.2559,7.2555,7.2768,7.2596,7.2596,7.2595,7.2595,0,7.1443,7.1553,7.1612,7.1691,7.1814,7.1846,7.1967,7.2012,7.2081,7.2168,7.2174,7.2256,7.2297,7.2385,7.2413,7.2537,7.2562,7.2583,7.2589,7.2581,7.2578,7.2614,7.2604,7.2601,7.26,7.2599,7.2598,0,7.1581,7.1625,7.1765,7.1853,7.1877,7.1964,7.2039,7.2115,7.2153,7.2264,7.2292,7.2351,7.2455,7.2497,7.2625,7.2644,7.2786,7.2785,7.2758,7.2759,7.2834,7.2826,7.3076,7.3109,7.2918,7.2919,7.2921,0,7.1686,7.1771,7.1867,7.1926,7.1974,7.2069,7.2131,7.2165,7.223,7.2328,7.2393,7.2496,7.2581,7.2747,7.2802,7.2899,7.2899,7.298,7.2913,7.2903,7.2897,7.2891,7.2898,7.2991,7.2993,7.2995,7.2996,0,7.1867,7.1884,7.1973,7.2069,7.2143,7.2221,7.2297,7.2344,7.2391,7.2462,7.2568,7.2634,7.2764,7.2866,7.2966,7.3014,7.3013,7.3017,7.304,7.3032,7.3011,7.3021,7.2789,7.301,7.3009,7.3008,7.3007,7.3006,7.199,7.2065,7.2144,7.2242,7.2303,7.2373,7.2449,7.2496,7.2585,7.2693,7.2708,7.2821,7.29,7.3034,7.3086,7.3175,7.3154,7.3188,7.3196,7.3203,7.3206,7.2999,7.3194,7.3193,7.3193,7.3193,7.3193,0,7.2169,7.222,7.231,7.2416,7.2493,7.2485,7.2569,7.2634,7.2733,7.2806,7.2889,7.301,7.311,7.3172,7.3272,7.3331,7.3332,7.3355,7.335,7.3361,7.3221,7.319,7.3352,7.3352,7.3352,7.3352,7.3352,7.3352,7.2271,7.2396,7.2423,7.2578,7.2628,7.2738,7.2786,7.2851,7.2909,7.3044,7.3126,7.3166,7.3235,7.334,7.343,7.3446,7.3482,7.3506,7.352,7.3388,7.3371,7.3355,7.3326,7.3514,7.3514,7.3652,7.3653,7.3654]},{"header":{"parameterUnit":"m.s-1","parameterCategory":1,"la1":30.2991,"la2":30.254,"lo1":-89.0895,"lo2":-89.0444,"dy":0.0017,"dx":0.0017,"nx":28,"ny":28,"refTime":"2024-06-26T21:00:00:Z","depth":0,"parameterNumber":3,"parameterNumberName":"V-component_of_WINDS"},"data":[0,0,0,0,0,0,0,0,0,0,0,0,0,0,0,0,0,0,0,0,0,0,0,0,0,0,0,0,0,0,0,0,0,0,0,0,0,0,0,0,0,0,0,0,0,0,0,0,0,0,0,0,0,0,0,0,0,0,2.7744,2.7745,0,2.7818,2.7818,2.7819,2.783,2.783,2.7829,2.7828,2.7902,2.7904,2.7907,0,0,0,0,0,0,0,0,0,0,0,0,0,2.7611,2.7614,2.7744,2.7745,2.7746,2.7818,2.7819,2.782,2.783,2.783,2.7829,2.7828,2.7901,2.7904,2.7907,0,0,0,0,0,0,0,0,0,0,0,0,0,2.7675,2.7614,2.7744,2.776,2.7762,2.7817,2.7819,2.782,2.7831,2.783,2.7829,2.7828,2.79,2.7904,2.7907,2.7951,0,0,2.7919,2.7921,0,0,0,0,0,0,0,0,2.7672,2.768,2.7757,2.7759,2.7762,2.7814,2.7799,2.7864,2.7831,2.7805,2.7828,2.7827,2.7873,2.7879,2.7895,2.7954,2.7958,2.792,2.7922,2.7924,2.7925,0,0,0,0,0,0,0,2.7667,2.7677,2.7773,2.7758,2.7761,2.7763,2.7771,2.7811,2.7843,2.7807,2.7808,2.7816,2.7874,2.7891,2.7897,2.7959,2.7919,2.7923,2.7925,2.7927,2.8057,2.8058,0,0,0,0,0,0,2.766,2.7673,2.7771,2.7775,2.7713,2.7766,2.7775,2.7798,2.7843,2.7849,2.7817,2.7817,2.7885,2.7892,2.7899,2.7953,2.7924,2.7927,2.7929,2.8056,2.8057,2.8058,0,0,0,0,0,0,2.7657,2.7669,2.7768,2.7725,2.7737,2.777,2.7795,2.78,2.7817,2.7851,2.7857,2.7829,2.7885,2.7894,2.7938,2.7956,2.7929,2.7932,2.8054,2.8056,2.8058,2.8061,0,0,0,0,0,0,2.7653,2.7668,2.7685,2.7725,2.774,2.7806,2.7796,2.7802,2.7824,2.7824,2.7863,2.7869,2.7885,2.7932,2.7942,2.7961,2.7935,2.8053,2.8055,2.8057,2.806,2.8063,2.8065,0,0,0,0,0,2.7648,2.7683,2.7686,2.7698,2.7762,2.7807,2.7815,2.7833,2.7825,2.7843,2.7864,2.7868,2.7952,2.7937,2.7948,2.7968,2.8052,2.8054,2.8057,2.8058,2.8062,2.8065,0,0,0,0,0,0,2.7643,2.7688,2.7692,2.774,2.777,2.7809,2.7831,2.7837,2.7869,2.7867,2.7888,2.7897,2.7939,2.7958,2.794,2.8012,2.8001,2.8006,2.7998,2.8002,2.8005,2.8,2.7939,0,0,0,0,0,2.7648,2.7681,2.7718,2.7757,2.7772,2.7799,2.7819,2.7831,2.7862,2.7874,2.7899,2.7928,2.7961,2.7983,2.8015,2.8062,2.8071,2.8081,2.8084,2.8086,2.809,2.8116,2.8121,2.8067,2.8067,2.8067,0,0,2.7658,2.7686,2.7706,2.7757,2.7781,2.7814,2.7809,2.7845,2.787,2.7879,2.7922,2.7942,2.7976,2.8021,2.8042,2.8038,2.8107,2.809,2.8091,2.8094,2.8119,2.8124,2.8129,2.8068,2.8068,2.8068,0,0,2.7692,2.7717,2.7753,2.7777,2.7814,2.7832,2.784,2.7878,2.7891,2.7935,2.7943,2.7972,2.8029,2.8053,2.8072,2.8116,2.812,2.8126,2.8141,2.8166,2.817,2.8174,2.8189,2.8195,2.8129,2.8129,2.8129,0,2.7699,2.7751,2.777,2.7805,2.7827,2.7838,2.7873,2.7895,2.7941,2.7955,2.795,2.8021,2.8045,2.8096,2.8106,2.8122,2.8132,2.8121,2.8168,2.8172,2.8176,2.8191,2.8197,2.813,2.813,2.813,2.813,0,2.7758,2.7793,2.7817,2.7861,2.7886,2.7921,2.7944,2.7967,2.7976,2.7994,2.8038,2.8067,2.8105,2.8118,2.8127,2.817,2.8166,2.8164,2.8154,2.8182,2.8196,2.8202,2.8131,2.813,2.813,2.813,0,0,2.7791,2.7846,2.7854,2.7874,2.7915,2.7942,2.7978,2.8016,2.8034,2.8065,2.8095,2.8142,2.8141,2.8163,2.8174,2.8196,2.8228,2.8192,2.8193,2.8197,2.8277,2.8279,2.8285,2.8231,2.8232,2.8233,2.8275,0,2.7831,2.7895,2.7913,2.7967,2.7999,2.801,2.804,2.8068,2.8086,2.8115,2.8135,2.8168,2.8163,2.8177,2.8199,2.822,2.8245,2.8217,2.8258,2.826,2.825,2.8293,2.8294,2.8332,2.828,2.8281,2.8282,0,2.7886,2.7918,2.7975,2.8012,2.8026,2.8054,2.809,2.8118,2.815,2.8161,2.8186,2.8195,2.8232,2.8219,2.8269,2.825,2.8268,2.8281,2.8282,2.8287,2.8273,2.8298,2.8345,2.835,2.8291,2.829,2.8289,0,2.7905,2.7962,2.8004,2.8021,2.8065,2.8084,2.8103,2.8133,2.8155,2.8186,2.82,2.8235,2.8254,2.8281,2.8299,2.8288,2.8347,2.8336,2.8357,2.8357,2.8369,2.8368,2.8419,2.8381,2.8381,2.8381,2.838,0,2.7947,2.7981,2.8013,2.8039,2.8077,2.8097,2.8135,2.8154,2.8181,2.821,2.8221,2.8248,2.827,2.83,2.8314,2.8354,2.8362,2.8372,2.8375,2.8371,2.837,2.8383,2.8381,2.8382,2.8382,2.8381,2.8381,0,2.7975,2.7997,2.8043,2.8081,2.8091,2.8118,2.815,2.8175,2.8193,2.823,2.8239,2.8267,2.8303,2.8323,2.8368,2.8378,2.8421,2.8423,2.841,2.8412,2.8432,2.843,2.8493,2.8502,2.8457,2.8458,2.8458,0,2.8,2.8027,2.8068,2.8089,2.8108,2.8141,2.8163,2.8183,2.8206,2.8244,2.8264,2.83,2.833,2.8386,2.841,2.8444,2.8447,2.8467,2.8452,2.8447,2.8447,2.8445,2.8448,2.8469,2.847,2.847,2.847,0,2.8043,2.8053,2.8085,2.8121,2.8147,2.8176,2.8205,2.8221,2.8246,2.8271,2.8308,2.8331,2.8376,2.8412,2.8448,2.8467,2.8473,2.8475,2.8481,2.8477,2.8469,2.8474,2.8417,2.8473,2.8473,2.8473,2.8472,2.8472,2.807,2.8095,2.8128,2.8163,2.8187,2.8213,2.8239,2.826,2.8291,2.833,2.834,2.8378,2.8409,2.8458,2.8477,2.8507,2.8504,2.8513,2.8516,2.8518,2.8518,2.8464,2.8514,2.8514,2.8514,2.8513,2.8513,0,2.8114,2.8135,2.8168,2.8208,2.8236,2.8239,2.8271,2.8294,2.8328,2.8356,2.8385,2.8427,2.8462,2.8488,2.8523,2.8542,2.8545,2.8551,2.8549,2.8554,2.8519,2.851,2.8547,2.8547,2.8547,2.8547,2.8547,2.8547,2.814,2.8181,2.8195,2.8248,2.8269,2.8307,2.8325,2.8349,2.8372,2.8419,2.8448,2.8465,2.8492,2.8529,2.8561,2.8568,2.858,2.8585,2.8592,2.856,2.8556,2.8552,2.8544,2.8587,2.8587,2.8624,2.8624,2.8624]}]]